sat.trackr.live / text

‹ back to catalog

STARLINK-35697

NORAD 66539 · 2025-265Z

PAYLOAD ACTIVE UNKNOWN

§ Identity

Operator
Country
US
Launch date
2025-11-19
Launch site
AFETR
Launch vehicle
Mass (kg)
RCS (m²)

Purposes: comms

External: N2YO · Heavens-Above · Gunter

§ Orbital elements

Epoch: 2026-05-25T04:26:01.505760Z

Period
94.27 min
Inclination
42.9982°
Eccentricity
0.0001393
Mean motion
15.27586100 rev/d
Perigee alt
482.1 km
Apogee alt
484.0 km
Semi-major
6,861.2 km
B*
4.3273e-4
RAAN
205.8139°
Arg perigee
286.0820°
Mean anomaly
73.9878°
Rev number
2,881

§ Raw data

STARLINK-356971 66539U 25265Z   26145.18473965  .00011667  00000+0  43273-3 0  99922 66539  42.9982 205.8139 0001393 286.0820  73.9878 15.27586100 28811

JSON: /api/v1/satellites/66539 · /tle

For live sub-satellite position, see the globe view (requires WebGL).

§ Visibility from observer

Set your observer location to see the next 7 days of passes ≥ 10°. The values pass through the URL so the page stays shareable.

No JS? Fill the form by hand. The geolocation button needs JavaScript.